Content
SEND FEEDBACK

Daily
Averages
Monthly
Summary
United States of America

ST. LOUIS, MISSOURI


Home > North America > United States > Missouri
Elevation: 535 feet     Latitude: 38 45N     Longitude: 090 22W

WEATHER
 
SELECT A DAY
Number of Records: 199,686;   Date Range: 1/1/95 - 10/22/14
 
SHARE

PRINT THIS DATA

[ ← Previous Day ]
WEATHER ALMANAC - JULY 16, 2013
[ Next Day → ]
[ °C ]   °F
Weather ElementAverageHighLow
Temperature73 °F102 °F (5:54 pm) (2:54 pm)
Dewpoint62 °F73 °F (7:54 am) (7:00 pm)
Humidity69.2 %97 % (5:54 am)35 % (5:54 pm)
Barometer30.24 in30.27 in (8:54 am)30.19 in (2:54 am)
Wind Speed2.1 mph8.1 mph (9:54 am)
Weather ElementAverage
Visibility9.7 mi
Wind DirectionENE (51.3 °)

Weather ElementTotal
Precipitation---
Heating Degree Days14 (Base 65)
Growing Degree Days1 (Base 50)
Averaged from 23 records on July 16, 2013
WEATHER CONDITIONS BREAKOUT
WIND DIRECTION BREAKOUT
WEATHER BY HOUR - JULY 16, 2013
[ °C ]   °F
Local TimeTemperatureDewpointHumidityBarometerVisibilityWind DirectionWind SpeedGust SpeedPrecipitationEventsConditions
1:54 AM73.9 °F72.0 °F93 %30.20 in9.0 miCalmClear
2:54 AM73.0 °F71.1 °F93 %30.19 in8.0 miCalmClear
3:54 AM72.0 °F70.0 °F93 %30.20 in6.0 miCalmClear
4:54 AM72.0 °F70.0 °F93 %30.22 in9.0 miCalmClear
5:54 AM70.0 °F69.1 °F97 %30.25 in10.0 miCalmScattered Clouds
6:54 AM73.9 °F71.1 °F91 %30.26 in10.0 miCalmClear
7:54 AM86.0 °F73.0 °F65 %30.26 in10.0 miCalmPartly Cloudy
8:54 AM90.0 °F72.0 °F55 %30.27 in10.0 miSouth (190°)4.6 mphClear
9:54 AM93.0 °F72.0 °F50 %30.27 in10.0 miSSW (210°)8.1 mphScattered Clouds
10:54 AM95.0 °F72.0 °F47 %30.27 in10.0 miVariable4.6 mphMostly Cloudy
11:54 AM98.1 °F70.0 °F40 %30.26 in10.0 miCalmScattered Clouds
12:54 PM89.1 °F70.0 °F53 %30.25 in10.0 miVariable3.5 mphMostly Cloudy
1:54 PM100.9 °F71.1 °F38 %30.24 in10.0 miCalmMostly Cloudy
2:54 PM0.0 °F0.0 °F30.25 in10.0 miEast (90°)5.8 mphMostly Cloudy
3:54 PM0.0 °F0.0 °F30.25 in10.0 miCalmMostly Cloudy
4:54 PM91.0 °F70.0 °F50 %30.21 in10.0 miVariable3.5 mphMostly Cloudy
5:54 PM102.0 °F70.0 °F35 %30.20 in10.0 miSouth (170°)4.6 mphScattered Clouds
6:54 PM0.0 °F0.0 °F30.24 in10.0 miSSE (160°)6.9 mphScattered Clouds
7:54 PM87.1 °F72.0 °F61 %30.21 in10.0 miSouth (190°)3.5 mphClear
8:54 PM80.1 °F73.0 °F79 %30.22 in10.0 miCalmClear
9:54 PM79.0 °F73.0 °F82 %30.24 in10.0 miCalmClear
10:54 PM77.0 °F72.0 °F84 %30.25 in10.0 miSouth (170°)3.5 mphClear
11:54 PM77.0 °F72.0 °F84 %30.26 in10.0 miCalmClear
Hourly data recorded from KSUS, located miles away from St. Louis, Missouri







STORIES FROM OUR PARTNERS